TimeEDT,TemperatureF,Dew PointF,Humidity,Sea Level PressureIn,VisibilityMPH,Wind Direction,Wind SpeedMPH,Gust SpeedMPH,PrecipitationIn,Events,Conditions,WindDirDegrees,DateUTC
12:53 AM,64.9,62.1,90,30.01,10.0,South,3.5,-,N/A,,Clear,190,2013-04-11 04:53:00
1:53 AM,64.0,61.0,90,30.01,10.0,Calm,Calm,-,N/A,,Clear,0,2013-04-11 05:53:00
2:53 AM,61.0,60.1,97,30.00,5.0,Calm,Calm,-,N/A,,Clear,0,2013-04-11 06:53:00
3:22 AM,60.8,59.0,94,30.00,1.8,Calm,Calm,-,N/A,,Clear,0,2013-04-11 07:22:00
3:24 AM,59.0,59.0,100,30.00,0.8,Calm,Calm,-,N/A,,Mist,0,2013-04-11 07:24:00
3:41 AM,60.8,59.0,94,30.00,0.5,Calm,Calm,-,N/A,Fog,Fog,0,2013-04-11 07:41:00
3:46 AM,60.8,57.2,88,30.00,1.2,Calm,Calm,-,N/A,,Scattered Clouds,0,2013-04-11 07:46:00
3:49 AM,60.8,57.2,88,30.00,2.0,Calm,Calm,-,N/A,,Scattered Clouds,0,2013-04-11 07:49:00
3:53 AM,60.1,59.0,96,29.99,2.5,Calm,Calm,-,N/A,,Scattered Clouds,0,2013-04-11 07:53:00
3:59 AM,60.8,57.2,88,29.99,1.5,Calm,Calm,-,N/A,,Partly Cloudy,0,2013-04-11 07:59:00
4:11 AM,60.8,59.0,94,29.99,2.0,Calm,Calm,-,N/A,,Partly Cloudy,0,2013-04-11 08:11:00
4:18 AM,60.8,57.2,88,29.99,1.5,Calm,Calm,-,N/A,,Partly Cloudy,0,2013-04-11 08:18:00
4:26 AM,60.8,59.0,94,29.99,1.0,Calm,Calm,-,N/A,,Mist,0,2013-04-11 08:26:00
4:38 AM,60.8,59.0,94,29.99,0.8,Calm,Calm,-,N/A,,Mist,0,2013-04-11 08:38:00
4:53 AM,61.0,59.0,93,29.98,1.2,Calm,Calm,-,N/A,,Scattered Clouds,0,2013-04-11 08:53:00
4:58 AM,60.8,59.0,94,29.98,2.0,Calm,Calm,-,N/A,,Scattered Clouds,0,2013-04-11 08:58:00
5:07 AM,60.8,59.0,94,29.98,4.0,South,3.5,-,N/A,,Scattered Clouds,170,2013-04-11 09:07:00
5:27 AM,60.8,60.8,100,29.98,6.0,Calm,Calm,-,N/A,,Mostly Cloudy,0,2013-04-11 09:27:00
5:46 AM,60.8,59.0,94,29.99,4.0,Calm,Calm,-,N/A,,Scattered Clouds,0,2013-04-11 09:46:00
5:48 AM,60.8,59.0,94,29.99,1.8,Calm,Calm,-,N/A,,Scattered Clouds,0,2013-04-11 09:48:00
5:53 AM,60.1,59.0,96,29.98,1.0,Calm,Calm,-,N/A,,Scattered Clouds,0,2013-04-11 09:53:00
6:00 AM,59.0,57.2,94,29.99,2.5,Calm,Calm,-,N/A,,Partly Cloudy,0,2013-04-11 10:00:00
6:07 AM,60.8,57.2,88,29.99,4.0,Calm,Calm,-,N/A,,Partly Cloudy,0,2013-04-11 10:07:00
6:12 AM,59.0,57.2,94,29.99,2.5,Calm,Calm,-,N/A,,Mostly Cloudy,0,2013-04-11 10:12:00
6:24 AM,60.8,59.0,94,29.99,6.0,Calm,Calm,-,N/A,,Mostly Cloudy,0,2013-04-11 10:24:00
6:45 AM,60.8,59.0,94,30.00,8.0,Calm,Calm,-,N/A,,Mostly Cloudy,0,2013-04-11 10:45:00
6:53 AM,61.0,60.1,97,29.99,8.0,Calm,Calm,-,N/A,,Mostly Cloudy,0,2013-04-11 10:53:00
7:53 AM,63.0,62.1,97,30.01,8.0,SE,3.5,-,N/A,,Overcast,140,2013-04-11 11:53:00
8:01 AM,64.4,62.6,94,30.01,8.0,Calm,Calm,-,N/A,,Overcast,0,2013-04-11 12:01:00
8:24 AM,64.4,62.6,94,30.01,2.0,South,3.5,-,N/A,,Overcast,180,2013-04-11 12:24:00
8:46 AM,64.4,64.4,100,30.01,3.0,South,5.8,-,N/A,,Overcast,190,2013-04-11 12:46:00
8:53 AM,66.0,64.0,93,30.01,4.0,South,6.9,-,N/A,,Overcast,190,2013-04-11 12:53:00
9:53 AM,68.0,66.0,93,30.01,4.0,SSW,8.1,-,N/A,,Overcast,210,2013-04-11 13:53:00
10:18 AM,69.8,66.2,88,30.02,7.0,SW,8.1,-,N/A,,Overcast,220,2013-04-11 14:18:00
10:50 AM,73.4,66.2,78,30.01,10.0,Variable,4.6,-,N/A,,Mostly Cloudy,0,2013-04-11 14:50:00
10:53 AM,73.0,66.0,79,30.01,10.0,SW,5.8,-,N/A,,Mostly Cloudy,230,2013-04-11 14:53:00
11:10 AM,73.4,66.2,78,30.01,10.0,WSW,5.8,-,N/A,,Scattered Clouds,240,2013-04-11 15:10:00
11:53 AM,77.0,66.0,69,29.98,10.0,South,5.8,-,N/A,,Scattered Clouds,180,2013-04-11 15:53:00
1:53 PM,81.0,66.0,60,29.94,10.0,SW,12.7,18.4,N/A,,Mostly Cloudy,230,2013-04-11 17:53:00
2:53 PM,82.0,64.9,56,29.90,10.0,SW,11.5,19.6,N/A,,Scattered Clouds,220,2013-04-11 18:53:00
3:53 PM,82.0,64.9,56,29.86,10.0,SW,9.2,18.4,N/A,,Overcast,220,2013-04-11 19:53:00
4:53 PM,79.0,70.0,74,29.83,10.0,ESE,5.8,-,0.02,,Scattered Clouds,120,2013-04-11 20:53:00
5:53 PM,77.0,69.1,76,29.83,10.0,SSE,6.9,-,N/A,,Partly Cloudy,150,2013-04-11 21:53:00
6:53 PM,75.0,70.0,84,29.83,10.0,SE,8.1,-,N/A,,Clear,140,2013-04-11 22:53:00
7:53 PM,73.9,64.9,73,29.84,10.0,SSE,11.5,20.7,N/A,,Scattered Clouds,160,2013-04-11 23:53:00
8:53 PM,72.0,66.0,81,29.82,10.0,South,11.5,17.3,0.00,Rain,Light Rain,170,2013-04-12 00:53:00
9:53 PM,71.1,64.9,81,29.82,10.0,South,10.4,-,0.00,,Clear,180,2013-04-12 01:53:00
10:33 PM,71.6,66.2,83,29.83,10.0,South,12.7,21.9,N/A,,Mostly Cloudy,180,2013-04-12 02:33:00
10:53 PM,72.0,66.0,81,29.82,10.0,South,12.7,24.2,N/A,,Overcast,180,2013-04-12 02:53:00
11:53 PM,73.0,66.0,79,29.83,10.0,South,17.3,23.0,N/A,,Overcast,190,2013-04-12 03:53:00